Estación de San Julian

Ultimos registro cada 15 minutos 45
Estación Fecha / Hora Temperatura Humedad Lluvia Velocidad Dirección Radiación Presion
45 San Julian 09-05-2026 11:00 16 66,1 0 0 236 453,1 985,2
44 San Julian 09-05-2026 10:45 15,1 70 0 0 239 435,6 985,3
43 San Julian 09-05-2026 10:30 14,4 72,5 0 0 275 474,4 985,2
42 San Julian 09-05-2026 10:15 15,1 69,9 0 0 263 443,1 985,1
41 San Julian 09-05-2026 10:00 13,8 75,3 0 0 274 384,4 985,3
40 San Julian 09-05-2026 09:45 12 78,4 0 0 274 295,6 985,1
39 San Julian 09-05-2026 09:30 11,5 80,5 0 0 274 163,1 985,2
38 San Julian 09-05-2026 09:15 10,9 82,5 0 0 274 114,4 984,9
37 San Julian 09-05-2026 09:00 10,6 84,3 0 0 274 123,1 985,2
36 San Julian 09-05-2026 08:45 10,8 82,4 0 0 274 179,4 984,9
35 San Julian 09-05-2026 08:30 10,7 84,8 0 0 274 140,6 984,9
34 San Julian 09-05-2026 08:15 9,6 89,2 0 0 250 144,4 984,8
33 San Julian 09-05-2026 08:00 7,8 93 0 0 234 70,6 984,5
32 San Julian 09-05-2026 07:45 5,1 92,5 0 0 234 21,9 984,4
31 San Julian 09-05-2026 07:30 6,1 92,9 0 0 234 4,4 984,3
30 San Julian 09-05-2026 07:15 5,8 92,5 0 0 234 0,6 983,9
29 San Julian 09-05-2026 07:00 5,2 92,3 0 0 243 0,6 983,8
28 San Julian 09-05-2026 06:45 5,2 92,5 0 0 244 0,6 983,6
27 San Julian 09-05-2026 06:30 6,3 90,5 0 0 244 0,6 983,4
26 San Julian 09-05-2026 06:15 6,3 89,5 0 0 244 0,6 983,4
25 San Julian 09-05-2026 06:00 7,7 88,4 0 0 247 0,6 983,2
24 San Julian 09-05-2026 05:45 7,3 87 0 0 264 0,6 983
23 San Julian 09-05-2026 05:30 7,5 86,3 0 0 234 0,6 982,9
22 San Julian 09-05-2026 05:15 8,5 87,8 0 0 241 0,6 982,7
21 San Julian 09-05-2026 05:00 8,3 85,4 0 0 248 0,6 982,6
20 San Julian 09-05-2026 04:45 8,5 84,2 0 0 247 0,6 982,6
19 San Julian 09-05-2026 04:30 8,4 84,1 0 0 258 0,6 982,6
18 San Julian 09-05-2026 04:15 8,3 82,2 0 0 267 0,6 982,5
17 San Julian 09-05-2026 04:00 6,4 78,4 0 0 270 0,6 982,4
16 San Julian 09-05-2026 03:45 7,2 77,9 0 0 270 0,6 982,6
15 San Julian 09-05-2026 03:30 7,5 70,1 0 0 271 0,6 982,5
14 San Julian 09-05-2026 03:15 8,2 66 0 0 271 0,6 982,5
13 San Julian 09-05-2026 03:00 8,6 68,7 0 0 271 0,6 982,4
12 San Julian 09-05-2026 02:45 6,2 74,2 0 0 271 0,6 982,6
11 San Julian 09-05-2026 02:30 5,3 76,8 0 0 271 0,6 982,7
10 San Julian 09-05-2026 02:15 5,5 73,8 0 0 271 0,6 982,8
9 San Julian 09-05-2026 02:00 7,1 70,5 0 0 271 0,6 982,9
8 San Julian 09-05-2026 01:45 8,2 71,3 0 0 271 0,6 983
7 San Julian 09-05-2026 01:30 6,7 74,7 0 0 271 0,6 983,1
6 San Julian 09-05-2026 01:15 6,9 72 0 0 271 0,6 983,3
5 San Julian 09-05-2026 01:00 6,8 69,3 0 0 271 0,6 983,4
4 San Julian 09-05-2026 00:45 8,9 65,2 0 0 271 0,6 983,3
3 San Julian 09-05-2026 00:30 11 62,9 0 0 271 0,6 983,5
2 San Julian 09-05-2026 00:15 10,8 62,1 0 0 271 0,6 983,7
1 San Julian 09-05-2026 00:00 11 60,1 0 0 271 0,6 983,7